Weather in Castelsardo

Italy     40°54′46″N   8°42′47″E
temp.,
°C
wind,
m/s
gust,
m/s
humid.,
%
clouds,
%
prec.,
mm/h
press.,
hPa
HPBL,
m
4 march, thu
thu401:00+10se337426 0.0 1028103
04:00+10sse33760 0.0 1027107
07:00+10sse337911 0.0 102698
10:00+13ssw11650 0.0 1025236
13:00+13nnw22658 0.0 1023306
16:00+13n23660 0.0 1022362
19:00+12nne237821 0.0 1020356
22:00+11se228092 0.0 102192
5 march, fri
fri501:00+11se337796 0.0 102090
04:00+11se3377100 0.0 101892
07:00+11sse227499 0.0 101791
10:00+13sse2270100 0.0 1018129
13:00+14n3369100 0.1 1017309
16:00+14nnw236785 0.0 1016301
19:00+12ne227547 0.1 1017192
22:00+12se22770 0.0 101980
6 march, sat
sat601:00+11sse22791 0.0 101982
04:00+11sse227935 0.0 101989
07:00+11se227934 0.0 102093
10:00+14ene11690 0.0 1022234
13:00+14ne55750 0.3 1021319
16:00+15ne45740 0.3 1021314
19:00+13ene45814 0.6 1022110
22:00+12e458381 0.0 1023207
7 march, sun
sun701:00+12ese458589 0.0 1023188
04:00+11se348592 0.0 1022163
07:00+11ese448690 0.1 1021161
10:00+14e458184 0.0 1022397
13:00+15ene337992 1.3 1020211
16:00+13ene1290100 2.8 1018187
19:00+12ene2289100 4.7 1018215
22:00+12ene3384100 0.1 1018224
8 march, mon
mon801:00+12ese1186100 0.4 1016138
04:00+11ene2290100 1.0 1015162
07:00+12ene238693 1.0 1015382
10:00+13nne127812 0.0 1015372
13:00+13nnw33756 0.2 1015406
16:00+13n45760 0.1 1014567
19:00+12n34790 0.1 1015466
22:00+12nnw237873 0.0 1016521